Hurlburt Field, FL

5:05 PM CST on November 23, 2017 (GMT -0600)
Hurlburt

Weather History for KHRT - June, 2013

Change the Weather History Date:

Saturday, June 22, 2013

  Actual Average Record
Temperature  
Mean Temperature 78 °F -  
Max Temperature 86 °F 85 °F 96 °F (1998)
Min Temperature 71 °F 71 °F 66 °F (2007)
Cooling Degree Days 14    
Growing Degree Days 28 (Base 50)    
Moisture  
Dew Point 79 °F    
Average Humidity 100    
Maximum Humidity 100    
Minimum Humidity 100    
Precipitation  
Precipitation 0.00 in - - ()
Sea Level Pressure  
Sea Level Pressure 30.08 in    
Wind  
Wind Speed 6 mph (ENE)    
Max Wind Speed 13 mph    
Max Gust Speed -    
Visibility 10 miles    
Events Rain    
Averages and records for this station are not official NWS values.
T = Trace of Precipitation, MM = Missing Value Source: NWS Daily Summary

Daily Weather History Graph

Daily Weather History Graph

Search for Another Location

Airport or City:

Trip Planner

Search our weather history database for the weather conditions in past years. The results will help you decide how hot, cold, wet, or windy it might be!

Date:

Astronomy

Jun. 22, 2013 Rise Set
Actual Time 5:45 AM CDT 7:52 PM CDT
Civil Twilight 5:17 AM CDT 8:19 PM CDT
Nautical Twilight 4:44 AM CDT 8:53 PM CDT
Astronomical Twilight 4:08 AM CDT 9:29 PM CDT
Moon 7:10 PM CDT (6/22) 4:53 AM CDT (6/22)
Length of Visible Light 15h 02m
Length of Day
14h 06m
Waxing Gibbous, 99% of the Moon is Illuminated
Jun 22
Waxing Gibbous
Jun 23
Full
Jun 29
Last Quarter
Jul 8
New
Jul 15
First Quarter

Hourly Weather History & Observations

Time (CDT) Temp. Heat Index Dew Point Humidity Pressure Visibility Wind Dir Wind Speed Gust Speed Precip Events Conditions
12:58 AM 74.5 °F - 74.5 °F 100% 30.09 in 10.0 mi ENE 2.3 mph - N/A   Clear
1:58 AM 75.2 °F - 75.2 °F 100% 30.07 in 10.0 mi ENE 3.5 mph - N/A   Clear
2:58 AM 73.6 °F - 73.6 °F 100% 30.06 in 10.0 mi NNE 3.5 mph - N/A   Clear
3:58 AM 73.2 °F - 73.2 °F 100% 30.06 in 10.0 mi ENE 4.6 mph - N/A   Clear
4:58 AM 72.9 °F - 72.9 °F 100% 30.07 in 10.0 mi NE 5.8 mph - N/A   Clear
5:58 AM 72.1 °F - 72.1 °F 100% 30.09 in 10.0 mi NNE 4.6 mph - N/A   Clear
6:28 AM 71.6 °F - 71.6 °F 100% 30.08 in 10.0 mi NE 4.6 mph - N/A   Light Drizzle
6:37 AM 71.6 °F - 71.6 °F 100% 30.09 in 10.0 mi NE 5.8 mph - N/A   Clear
6:58 AM 73.2 °F - 73.2 °F 100% 30.10 in 10.0 mi NE 6.9 mph - 0.00 in   Clear
7:27 AM 75.2 °F - 75.2 °F 100% 30.09 in 10.0 mi NE 6.9 mph - N/A Rain Light Rain
7:36 AM 75.2 °F - 75.2 °F 100% 30.10 in 10.0 mi ENE 4.6 mph - N/A   Clear
7:39 AM 75.2 °F - 75.2 °F 100% 30.09 in 10.0 mi ENE 5.8 mph - N/A   Light Drizzle
7:48 AM 77.0 °F - 77.0 °F 100% 30.10 in 10.0 mi ENE 6.9 mph - N/A   Clear
7:58 AM 76.8 °F - 76.8 °F 100% 30.11 in 10.0 mi ENE 5.8 mph - 0.00 in   Clear
8:58 AM 79.9 °F - 79.9 °F 100% 30.12 in 10.0 mi ENE 8.1 mph - N/A   Clear
9:58 AM 82.6 °F 96.8 °F 82.6 °F 100% 30.12 in 10.0 mi East 8.1 mph - N/A   Scattered Clouds
10:58 AM 82.4 °F 96.1 °F 82.4 °F 100% 30.13 in 10.0 mi East 9.2 mph - N/A   Clear
11:58 AM 85.1 °F 107.5 °F 85.1 °F 100% 30.12 in 10.0 mi SSE 10.4 mph - N/A   Partly Cloudy
12:58 PM 85.5 °F 109.1 °F 85.5 °F 100% 30.11 in 10.0 mi South 11.5 mph - N/A   Partly Cloudy
1:58 PM 86.0 °F 111.5 °F 86.0 °F 100% 30.10 in 10.0 mi SSE 12.7 mph - N/A   Clear
2:58 PM 85.1 °F 107.5 °F 85.1 °F 100% 30.08 in 10.0 mi SSE 12.7 mph - N/A   Scattered Clouds
3:58 PM 85.3 °F 108.3 °F 85.3 °F 100% 30.07 in 10.0 mi South 10.4 mph - N/A   Clear
4:58 PM 85.5 °F 109.1 °F 85.5 °F 100% 30.06 in 10.0 mi SSE 8.1 mph - N/A   Clear
5:58 PM 84.4 °F 104.3 °F 84.4 °F 100% 30.05 in 10.0 mi SSE 5.8 mph - N/A   Clear
6:58 PM 82.0 °F 94.7 °F 82.0 °F 100% 30.02 in 10.0 mi SSE 9.2 mph - N/A   Clear
7:58 PM 80.8 °F 90.0 °F 80.8 °F 100% 30.03 in 10.0 mi ENE 4.6 mph - N/A   Clear
8:07 PM 80.6 °F 89.3 °F 80.6 °F 100% 30.02 in 10.0 mi ENE 4.6 mph - N/A   Light Drizzle
8:13 PM 80.6 °F 89.3 °F 80.6 °F 100% 30.02 in 10.0 mi East 3.5 mph - N/A   Clear
8:58 PM 79.7 °F - 79.7 °F 100% 30.04 in 10.0 mi North 3.5 mph - 0.00 in   Clear
9:58 PM 78.4 °F - 78.4 °F 100% 30.06 in 10.0 mi NE 5.8 mph - N/A   Clear
10:58 PM 77.0 °F - 77.0 °F 100% 30.08 in 10.0 mi ENE 4.6 mph - N/A   Clear
11:58 PM 76.6 °F - 76.6 °F 100% 30.08 in 10.0 mi NNW 2.3 mph - N/A   Clear